Preview of NWS' New Version of Forecast
This preview is not operational and should not be used for support decisions.

Regional Weather Roundup (RWR)

Issued by Gray - Portland, ME (GYX)

                            
958 
ASUS41 KGYX 260805
RWRGYX
WEATHER ROUNDUP FOR MAINE AND NEW HAMPSHIRE
NATIONAL WEATHER SERVICE GRAY ME
400 AM EDT SAT MAY 26 2018

MEZ002-005-006-010-012-015-018-020-021-024-026-027-029-260900-
MAINE
  
CITY           SKY/WX    TMP DP  RH WIND       PRES   REMARKS
PORTLAND       FAIR      69  56  62 S7        29.66F                  
SANFORD        FAIR      58  55  90 CALM      29.68F                  
BAR HARBOR     CLOUDY    64  55  72 SW7       29.61S                  
WISCASSET      FAIR      66  59  78 CALM      29.65F                  
ROCKLAND       CLOUDY    66  59  78 W8        29.62F                  
FRYEBURG       FAIR      66  57  72 SW6       29.67F                  
LEWISTONAUBURN FAIR      70  56  61 SW10      29.65F                  
AUGUSTA        FAIR      70  55  59 VRB5      29.64S                  
WATERVILLE     FAIR      69  57  65 W8        29.60F                  
BANGOR         CLOUDY    70  59  68 SW3       29.60S                  
GREENVILLE       N/A     62  59  90 VRB6      29.59F                  
MILLINOCKET    CLOUDY    61  59  93 CALM      29.60R                  
HOULTON        CLOUDY    61  60  97 CALM      29.55R                  
PRESQUE ISLE   CLOUDY    57  57 100 CALM      29.56S FOG              
FRENCHVILLE    FAIR      55  43  63 N8        29.59R                  
CARIBOU        CLOUDY    59  54  83 N9        29.55S                  
$$

NHZ002-005-008-009-011-012-014-260900-
NEW HAMPSHIRE
  
CITY           SKY/WX    TMP DP  RH WIND       PRES   REMARKS
PORTSMOUTH     MOCLDY    67  53  59 SW3       29.67S                  
ROCHESTER      FAIR      64  54  69 CALM      29.67F                  
NASHUA         FAIR      70  54  56 CALM      29.71S                  
MANCHESTER     FAIR      73  51  46 CALM      29.69S                  
CONCORD        FAIR      59  55  87 SE7       29.70S                  
LACONIA        FAIR      60  56  86 CALM      29.70F                  
PLYMOUTH       FAIR      57  56  95 CALM      29.69F                  
BERLIN         CLOUDY    65  56  72 CALM      29.69F                  
WHITEFIELD     CLOUDY    61  60  97 CALM      29.71S                  
JAFFREY        FAIR      67  54  63 S8        29.77R                  
KEENE          FAIR      58  53  84 CALM      29.75R                  
LEBANON        MOCLDY    63  56  78 CALM      29.70S                  
MT WASHINGTON  FOG       45  45 100 W48G55      N/A  VSB 1/16         
$$

VTZ005-007-008-260900-
VERMONT
  
CITY           SKY/WX    TMP DP  RH WIND       PRES   REMARKS
ST JOHNSBURY     N/A     61  61 100 MISG      29.68F                  
MONTPELIER     CLOUDY    61  60  97 CALM      29.75S                  
BURLINGTON     CLOUDY    64  61  90 CALM      29.69R                  
$$

MAZ007-012-024-CTZ003-RIZ002-NYZ038-NYZ072-260900-
SOUTHERN NEW ENGLAND AND NY
  
CITY           SKY/WX    TMP DP  RH WIND       PRES   REMARKS
BOSTON         FAIR      73  56  54 W13G22    29.71S                  
WORCESTER      FAIR      66  55  67 W16       29.76F                  
NANTUCKET      FAIR      57  56  96 SW20      29.80F                  
PROVIDENCE     FAIR      70  59  68 SW10      29.77S                  
HARTFORD       FAIR      65  59  81 CALM      29.77R                  
ALBANY         FAIR      62  52  69 S3        29.76S                  
NEW YORK CITY  FAIR      75  63  66 SW8       29.81F                  
$$

ANZ081-ANZ082-ANZ150-NHZ014-MEZ023>029-260900-
COASTAL MARINE OBSERVATIONS
  
STATION/POSITION TIME  TEMP    WIND        PRES    WAVE
                       AIR SEA DIR/SP/G            HT/PER
                 (UTC) (F)     (DEG/KT/KT) (MB)    (FT/S)
MOUNT DESERT ROC 0800   57     230/ 20/ 20 1003.1F
MATINICUS ROCK   0700   58     240/ 24/ 25 1003.2F
ISLE OF SHOALS   0700   73     240/ 17/ 17 1004.5F
JEFFREYS LEDGE   0736      54                N/A     3/ 6
CASHES LEDGE BUO 0650   56 51              1004.9    4/ 6
$$

.............KEY..............
   WCI - WIND CHILL
   TC  - TEMPERATURE IN CELSIUS
   VSB - VISIBILITY IN MILES
   HX  - HEAT INDEX
   FAIR- INDICATES FEW OR NO CLOUDS BELOW 12,000 FT, WITH NO 
         SIGNIFICANT WEATHER AND/OR OBSTRUCTIONS TO VISIBILITY.